Regional Weather Roundup
Issued by NWS State College, PA

Home | Current Version | Previous Version | Graphics & Text | Print | Product List | Glossary On
Versions: 1 2 3 4 5 6 7 8 9 10 11 12 13 14 15 16 17 18 19 20 21 22 23 24 25 26 27 28 29 30 31 32 33 34 35 36 37 38 39 40 41 42 43 44 45 46 47 48 49 50
000
ASUS41 KCTP 250710
RWRCTP

REGIONAL WEATHER ROUNDUP
NATIONAL WEATHER SERVICE STATE COLLEGE PA
300 AM EDT WED MAY 25 2016

Note: "fair" indicates few or no clouds below 12,000 feet with no
significant weather and/or obstructions to visibility.

* = STATION THAT DOES NOT REPORT PRECIPITATION /E.G. RAIN...SNOW...ETC/
    THUNDER OR FOG.

PAZ002>004-007>009-013>016-020>023-029>032-250800-
WESTERN PENNSYLVANIA

CITY           SKY/WX    TMP DP  RH WIND       PRES   REMARKS
ERIE           CLEAR     63  41  44 S8        30.04S
MEADVILLE      CLEAR     58  41  53 S7        30.08F
FRANKLIN*      CLEAR     55  43  62 SW5       30.11F
NEW CASTLE     FAIR      52  50  93 CALM      30.10S
BEAVER COUNTY  NOT AVBL
BUTLER*        CLEAR    N/A N/A N/A CALM      30.13S
PITTSBURGH INT CLEAR     63  48  58 CALM      30.10S
PITTSBURGH     CLEAR     65  47  52 SW9       30.10S
INDIANA*       CLEAR     52  50  93 CALM      30.15S
LATROBE        CLEAR     54  54 100 CALM      30.13R
WASHINGTON CO* CLEAR     50  46  87 CALM      30.13S
$$

PAZ004>006-010>012-017>019-024>028-033>037-041-042-045-046-049>053-250800-
CENTRAL PENNSYLVANIA

CITY           SKY/WX    TMP DP  RH WIND       PRES   REMARKS
BRADFORD       CLEAR     42  37  82 CALM      30.11S
DUBOIS         CLEAR     57  39  51 CALM      30.10S
CLEARFIELD     CLEAR     51  44  77 CALM      30.11R
JOHNSTOWN      CLEAR     59  45  59 W7        30.14S
ALTOONA        CLEAR     61  47  59 S5        30.12R
STATE COLLEGE  CLEAR     53  45  74 S3        30.09S
WILLIAMSPORT   CLEAR     50  43  77 NW3       30.05S
SELINSGROVE    CLEAR     50  48  93 CALM      30.06S
FT INDIANTOWN  CLEAR     53  51  92 N1        30.05S
CAPITAL CITY   CLEAR     65  47  52 CALM      30.06R
HARRISBURG     PTCLDY    59  49  69 CALM      30.05R
YORK           CLEAR     61  48  62 W6        30.06S
$$

PAZ038>040-043-044-047-048-054-055-060>062-067>071-250800-
EASTERN PENNSYLVANIA

CITY           SKY/WX    TMP DP  RH WIND       PRES   REMARKS
SCRANTON       CLEAR     52  43  71 E3        30.05R
MOUNT POCONO   CLEAR     46  45  96 NW7       30.07R
ALLENTOWN      CLEAR     55  51  86 CALM      30.04S
QUAKERTOWN*    SUNNY     50  50 100 CALM      30.05S
READING        CLEAR     55  51  86 W3        30.04S
LANCASTER      CLEAR     57  48  72 W6        30.05R
COATESVILLE    SUNNY     61  48  63 W5        30.07R
POTTSTOWN      CLEAR     53  51  93 CALM      30.06R
BLUE BELL      CLEAR     52  52 100 CALM      30.04R
DOYLESTOWN     CLEAR     53  51  93 CALM      30.03S
WILLOW GROVE   NOT AVBL
NORTH PHILA    CLEAR     59  53  80 CALM      30.04S
PHILADELPHIA   CLEAR     62  53  72 CALM      30.04R
$$



USA.gov is the U.S. government's official web portal to all federal, state and local government web resources and services.